Regional Weather Roundup
Issued by NWS Northern Indiana

Home | Current Version | Previous Version | Text Only | Print | Product List | Glossary On
Versions: 1 2 3 4 5 6 7 8 9 10 11 12 13 14 15 16 17 18 19 20 21 22 23 24 25 26 27 28 29 30 31 32 33 34 35 36 37 38 39 40 41 42 43 44 45 46 47 48 49 50
000
ASUS43 KIWX 311210
RWRIWX

KIWX WEATHER ROUNDUP
NATIONAL WEATHER SERVICE NORTHERN INDIANA
800 AM EDT THU JUL 31 2014

NOTE: "FAIR" INDICATES FEW OR NO CLOUDS BELOW 12,000 FEET WITH NO
SIGNIFICANT WEATHER AND/OR OBSTRUCTIONS TO VISIBILITY.

* THESE STATIONS ARE NOT UNDER NWS QUALITY CONTROL. THEY ALSO MAY NOT
  REPORT WEATHER SUCH AS PRECIPITATION OR FOG.

INZ001>027-311300-
NORTHERN INDIANA

CITY           SKY/WX    TMP DP  RH WIND       PRES   REMARKS
GARY*          MOSUNNY   63  59  88 SW7       30.05R FOG
VALPARAISO     SUNNY     60  57  89 SW6       30.06R FOG
6HR MIN TEMP:  54; 6HR MAX TEMP:  60;

MICHIGAN CITY* SUNNY     57  57 100 S3        30.05S
LAPORTE*       SUNNY     57  57 100 CALM      30.06R FOG
6HR MIN TEMP:  50; 6HR MAX TEMP:  57;

KNOX*          SUNNY     53  51  94 CALM      30.05R
6HR MIN TEMP:  44; 6HR MAX TEMP:  86;

SOUTH BEND     SUNNY     59  56  89 SW7       30.05S
6HR MIN TEMP:  56; 6HR MAX TEMP:  59;

ELKHART*       SUNNY     57  55  94 CALM      30.05R FOG
GOSHEN         SUNNY     58  55  90 CALM      30.05S FOG
6HR MIN TEMP:  53; 6HR MAX TEMP:  58;

MONTICELLO*    SUNNY     57  56  99 CALM      30.06R FOG
6HR MIN TEMP:  53; 6HR MAX TEMP:  58;

LOGANSPORT*    FOG       55  54  94 CALM      30.07S VSB<1/4
ROCHESTER*     SUNNY     61  61 100 CALM      30.07R FOG
WARSAW*        SUNNY     54  54 100 CALM      30.06R FOG
ANGOLA*        SUNNY     55  54  94 CALM      30.05S
FORT WAYNE     SUNNY     59  57  93 W3        30.07R FOG
6HR MIN TEMP:  56; 6HR MAX TEMP:  61;

HUNTINGTON*    SUNNY     59  58  99 SW3       30.06S FOG
6HR MIN TEMP:  55; 6HR MAX TEMP:  61;

PERU/GRISSOM   SUNNY     59  59 100 SW1       30.06S FOG
MARION*        SUNNY     55  54  98 CALM      30.08S FOG
6HR MIN TEMP:  32; 6HR MAX TEMP:  89;


$$
INZ028>050-311300-
CENTRAL INDIANA

CITY           SKY/WX    TMP DP  RH WIND       PRES   REMARKS
LAFAYETTE      SUNNY     59  58  96 CALM      30.07R FOG
6HR MIN TEMP:  56; 6HR MAX TEMP:  61;

KOKOMO*        SUNNY     57  57 100 CALM      30.07S
6HR MIN TEMP:  54; 6HR MAX TEMP:  57;

MUNCIE*        SUNNY     62  59  90 SW3       30.08R FOG
6HR MIN TEMP:  58; 6HR MAX TEMP:  64;

INDIANAPOLIS   MOSUNNY   62  59  90 SW7       30.08R
6HR MIN TEMP:  59; 6HR MAX TEMP:  63;


$$
MIZ043>046-050>051-056>058-064>065-071>073-077>080-311300-
SOUTHWEST LOWER MICHIGAN

CITY           SKY/WX    TMP DP  RH WIND       PRES   REMARKS
BATTLE CREEK   SUNNY     59  51  75 SW6       30.03S
6HR MIN TEMP:  54; 6HR MAX TEMP:  59;

BENTON HARBOR  MOSUNNY   58  56  93 S3        30.02S
6HR MIN TEMP:  51; 6HR MAX TEMP:  58;

COLDWATER*     SUNNY     58  55  91 CALM      30.04S
6HR MIN TEMP:  52; 6HR MAX TEMP:  58;

HILLSDALE*     SUNNY     59  53  80 SW3       30.05R
6HR MIN TEMP:  49; 6HR MAX TEMP:  59;

HOLLAND        CLOUDY    65  61  87 SW9       30.02R
6HR MIN TEMP:  54; 6HR MAX TEMP:  65;

GRAND RAPIDS   MOSUNNY   59  56  89 SW6       30.02R
6HR MIN TEMP:  55; 6HR MAX TEMP:  59;

KALAMAZOO      SUNNY     59  53  80 SW6       30.04R
6HR MIN TEMP:  52; 6HR MAX TEMP:  59;

STURGIS*       SUNNY     55  55 100 CALM      30.04S FOG
THREE RIVERS*  FAIR      57  57 100 SW3       30.04S FOG
6HR MIN TEMP:  54; 6HR MAX TEMP:  57;


$$
OHZ001>008-015>018-024>025-311300-
NORTHWEST OHIO

CITY           SKY/WX    TMP DP  RH WIND       PRES   REMARKS
WAUSEON*       FAIR      54  54 100 CALM      30.05S
DEFIANCE       SUNNY     55  53  93 S3        30.06R FOG
6HR MIN TEMP:  50; 6HR MAX TEMP:  60;

FINDLAY        SUNNY     60  57  89 S3        30.06R FOG
6HR MIN TEMP:  55; 6HR MAX TEMP:  63;

TOLEDO EXPRESS SUNNY     55  54  96 CALM      30.05R FOG
6HR MIN TEMP:  48; 6HR MAX TEMP:  58;

TOLEDO METCALF SUNNY     58  54  86 SW7       30.06R
6HR MIN TEMP:  53; 6HR MAX TEMP:  60;

LIMA           FOG       61  60  97 S5        30.07R VSB 1/4
6HR MIN TEMP:  60; 6HR MAX TEMP:  65;


$$
&&


USA.gov is the U.S. government's official web portal to all federal, state and local government web resources and services.